EW2875 Weather Reports


Display with metric or nautical units.
time (UTC)temp
F
wind
direction
speed
MPH
gust
MPH
rain 1hr
in
rain 24hr
in
rain mn
in
humidity
%
barometer
mb
20260506194504 43 131 10.0 13.0 0.00 0.01 0.00 79 1012.2
20260506193004 43 129 12.0 14.0 0.00 0.01 0.00 78 1012.2
20260506191504 44 131 11.0 15.0 0.00 0.01 0.00 77 1012.1
20260506190004 44 132 12.0 15.0 0.00 0.01 0.00 76 1012.1
20260506184504 45 139 13.0 19.0 0.00 0.01 0.00 74 1012.1
20260506183004 46 147 14.0 18.0 0.00 0.01 0.00 74 1012.2
20260506181503 45 149 13.0 20.0 0.00 0.01 0.00 74 1012.1
20260506180005 47 156 15.0 20.0 0.00 0.01 0.00 71 1012.1
20260506174503 48 156 16.0 22.0 0.00 0.01 0.00 70 1012.0
20260506173004 48 154 17.0 23.0 0.00 0.01 0.00 70 1012.0
20260506171504 48 150 18.0 25.0 0.00 0.01 0.00 69 1012.1
20260506170025 48 148 14.0 20.0 0.00 0.01 0.00 70 1012.2
20260506164503 50 144 15.0 21.0 0.00 0.01 0.00 68 1012.1
20260506163004 49 141 14.0 20.0 0.00 0.01 0.00 70 1012.3
20260506161524 48 137 17.0 25.0 0.00 0.01 0.00 71 1012.4
20260506160004 49 141 15.0 19.0 0.00 0.01 0.00 70 1012.5
20260506154504 49 151 12.0 18.0 0.00 0.01 0.00 69 1012.6
20260506153004 50 107 8.0 15.0 0.00 0.01 0.00 68 1012.7
20260506151504 52 49 6.0 15.0 0.00 0.01 0.00 61 1012.8
20260506150004 54 32 8.0 14.0 0.00 0.01 0.00 68 1012.9
20260506144503 53 36 8.0 16.0 0.00 0.01 0.00 65 1012.9
20260506143004 53 38 11.0 15.0 0.00 0.01 0.00 65 1013.2
20260506141503 54 31 8.0 14.0 0.00 0.01 0.00 63 1013.2
20260506140024 54 26 11.0 15.0 0.00 0.01 0.00 66 1013.3
20260506134504 53 30 11.0 15.0 0.00 0.01 0.00 72 1013.5
20260506133024 51 29 12.0 16.0 0.00 0.01 0.00 78 1013.6
20260506131503 50 30 10.0 15.0 0.00 0.01 0.00 72 1013.7
20260506130004 49 37 10.0 13.0 0.00 0.01 0.00 71 1013.8
20260506124503 49 23 11.0 16.0 0.00 0.01 0.00 71 1013.8
20260506123003 49 15 11.0 14.0 0.00 0.01 0.00 67 1013.8
20260506121503 50 23 8.0 12.0 0.00 0.01 0.00 70 1013.9
20260506120003 50 20 11.0 14.0 0.00 0.01 0.00 74 1013.9
20260506114524 48 13 8.0 12.0 0.00 0.01 0.00 71 1014.0
20260506113024 48 22 5.0 10.0 0.00 0.01 0.00 69 1014.1
20260506111503 48 36 3.0 5.0 0.00 0.01 0.00 65 1014.1
20260506110004 48 41 4.0 8.0 0.00 0.01 0.00 68 1014.2
20260506104503 48 27 4.0 8.0 0.00 0.01 0.00 68 1014.2
20260506103003 46 6 3.0 5.0 0.00 0.01 0.00 71 1014.3
20260506101503 46 325 2.0 5.0 0.00 0.01 0.00 69 1014.4
20260506100004 46 259 4.0 9.0 0.00 0.01 0.00 63 1014.4
20260506094503 46 235 3.0 9.0 0.00 0.01 0.00 67 1014.7
20260506093004 46 255 3.0 9.0 0.00 0.01 0.00 63 1014.8
20260506091503 49 253 3.0 8.0 0.00 0.01 0.00 62 1014.9
20260506090024 47 225 3.0 5.0 0.00 0.02 0.00 65 1014.9
20260506084503 46 180 3.0 8.0 0.00 0.02 0.00 66 1015.0
20260506083003 47 170 4.0 9.0 0.00 0.02 0.00 68 1015.1
20260506081503 45 176 2.0 5.0 0.00 0.02 0.00 68 1015.0
20260506073024 44 202 4.0 9.0 0.00 0.02 0.00 74 1015.1
20260506071503 42 201 3.0 7.0 0.00 0.02 0.00 82 1015.1
20260506061503 42 233 1.0 7.0 0.00 0.02 0.00 86 1015.1
20260506044524 33 219 7.0 8.0 0.00 0.03 0.00 93 1015.5
20260506043024 33 222 6.0 7.0 0.00 0.03 0.00 93 1015.5
20260506041503 33 222 3.0 4.0 0.00 0.03 0.00 93 1015.5
20260506040003 33 219 2.0 7.0 0.00 0.03 0.00 93 1015.6
20260506034503 33 219 5.0 7.0 0.00 0.03 0.00 92 1015.7
20260506033024 34 216 7.0 8.0 0.00 0.03 0.00 93 1015.7
20260506031503 34 214 8.0 9.0 0.00 0.03 0.00 94 1015.7
20260506030003 33 215 7.0 9.0 0.00 0.03 0.00 95 1015.7
20260506024503 32 210 4.0 8.0 0.00 0.03 0.00 94 1015.7
20260506023003 32 200 3.0 8.0 0.00 0.03 0.00 94 1015.9
20260506021503 33 193 8.0 9.0 0.00 0.03 0.00 94 1015.9
20260506020005 32 194 5.0 7.0 0.00 0.03 0.00 94 1015.9
20260506014504 33 194 3.0 5.0 0.00 0.03 0.00 94 1016.1
20260506013004 33 165 4.0 5.0 0.00 0.03 0.00 94 1016.0
20260506011525 33 156 4.0 7.0 0.00 0.03 0.00 94 1016.2
20260506010005 33 160 5.0 8.0 0.00 0.03 0.00 94 1016.2
20260506004505 34 163 7.0 9.0 0.00 0.03 0.00 94 1016.2
20260506003025 33 153 8.0 9.0 0.00 0.03 0.00 94 1016.1
20260506001525 33 140 6.0 8.0 0.00 0.03 0.00 94 1016.4
20260506000004 32 145 2.0 7.0 0.00 0.03 0.00 93 1016.3
20260505234504 34 0 0.0 0.0 0.00 0.03 0.00 91 1016.4
20260505233004 35 240 1.0 3.0 0.00 0.03 0.00 92 1016.4
20260505231504 35 240 1.0 2.0 0.00 0.04 0.00 92 1016.5
20260505230005 36 0 0.0 0.0 0.00 0.05 0.00 92 1016.5
20260505224504 37 292 0.0 2.0 0.00 0.05 0.05 92 1016.8
20260505223004 38 263 2.0 8.0 0.00 0.06 0.05 93 1016.8
20260505221525 37 239 1.0 3.0 0.00 0.06 0.05 93 1016.8
20260505220004 37 239 1.0 3.0 0.00 0.06 0.05 91 1016.8
20260505214525 38 239 2.0 3.0 0.01 0.06 0.05 91 1016.8
20260505213004 38 234 2.0 3.0 0.01 0.06 0.05 91 1016.8
20260505211504 38 229 2.0 5.0 0.01 0.09 0.05 91 1016.6
20260505210004 39 299 3.0 10.0 0.01 0.10 0.05 89 1016.8
20260505204504 39 307 9.0 14.0 0.00 0.09 0.04 87 1017.0
20260505203025 39 299 0.0 4.0 0.00 0.11 0.04 89 1017.0
20260505201504 40 0 0.0 0.0 0.00 0.12 0.04 88 1017.1
20260505200004 40 32 0.0 2.0 0.00 0.12 0.04 85 1017.0